{"data":{"norad_id":62119,"intl_designator":"2024-222F","name":"STARLINK-32535","alt_names":[],"object_type":"PAYLOAD","status":"ACTIVE","operator":null,"country":"US","launch_date":"2024-11-27","launch_site_code":"AFETR","launch_vehicle":null,"mission":null,"orbit_class":"UNKNOWN","rcs_meters":null,"size_class":null,"mass_kg":null,"dimensions":null,"purposes":["comms"],"wikipedia_slug":null,"has_3d_model":false,"image_url":null,"decayed_at":null,"tle_current":{"epoch":"2026-05-25T04:09:48.926016Z","epoch_age_seconds":60893,"freshness":"FRESH","line1":"1 62119U 24222F   26145.17348294  .00021193  00000+0  77656-3 0  9996","line2":"2 62119  42.9992  61.0049 0001569 273.5643  86.5029 15.27617786 84492","mean_motion":15.27617786,"eccentricity":0.0001569,"inclination_deg":42.9992,"raan_deg":61.0049,"arg_perigee_deg":273.5643,"mean_anomaly_deg":86.5029,"bstar":0.00077656,"rev_number":8449,"period_min":94.264417002539,"perigee_km":481.85945114804,"apogee_km":484.01245584084,"semimajor_km":6861.0729534944,"source":"CELESTRAK","updated_at":"2026-05-25T13:38:19.563343Z"}}}